• In France
  • List of Countries
  • For 7 days
  • Water Temperature
  • Satellite Maps
  • Weather Map
  • Weather Widgets
  • user-avatar
    Login

    Hourly Weather Cumiluh

    Today, 16 October, Tuesday

    Time Temperature Precipitation Wind Pressure Humidity
    00:00 +4°C° 0 mm 1 mps 598 mmHg 66%
    01:00 +4°C° 0 mm 1 mps 598 mmHg 68%
    02:00 +4°C° 0 mm 1 mps 597 mmHg 69%
    03:00 +4°C° 0 mm 1 mps 597 mmHg 72%
    04:00 +3°C° 0 mm 1 mps 598 mmHg 74%
    05:00 +3°C° 0 mm 1 mps 598 mmHg 75%
    06:00 +3°C° 0 mm 1 mps 598 mmHg 76%
    07:00 +5°C° 0 mm 1 mps 599 mmHg 72%
    08:00 +7°C° 0 mm 1 mps 599 mmHg 67%
    09:00 +9°C° 0 mm 1 mps 600 mmHg 63%
    10:00 +9°C° 0 mm 2 mps 601 mmHg 62%
    11:00 +9°C° 0 mm 2 mps 601 mmHg 60%
    12:00 +10°C° 0 mm 2 mps 601 mmHg 59%
    13:00 +10°C° 0 mm 2 mps 601 mmHg 60%
    14:00 +10°C° 0 mm 2 mps 601 mmHg 61%
    15:00 +10°C° 0 mm 2 mps 601 mmHg 62%
    16:00 +9°C° 0 mm 2 mps 600 mmHg 70%
    17:00 +8°C° 0 mm 1 mps 599 mmHg 78%
    18:00 +6°C° 0 mm 1 mps 598 mmHg 87%
    19:00 +6°C° 0 mm 1 mps 598 mmHg 87%
    20:00 +6°C° 0 mm 1 mps 598 mmHg 87%
    21:00 +4°C° 0 mm 0 mps 598 mmHg 87%
    22:00 +5°C° 0 mm 1 mps 598 mmHg 87%
    23:00 +5°C° 0 mm 1 mps 598 mmHg 86%

    Tomorrow, 17 October, Wednesday

    Time Temperature Precipitation Wind Pressure Humidity
    00:00 +5°C° 0 mm 1 mps 598 mmHg 86%
    01:00 +5°C° 0 mm 1 mps 598 mmHg 85%
    02:00 +4°C° 0 mm 1 mps 598 mmHg 85%
    03:00 +4°C° 0 mm 1 mps 597 mmHg 84%
    04:00 +4°C° 0 mm 1 mps 597 mmHg 83%
    05:00 +4°C° 0 mm 1 mps 597 mmHg 82%
    06:00 +4°C° 0 mm 1 mps 597 mmHg 81%
    07:00 +5°C° 0 mm 1 mps 598 mmHg 73%
    08:00 +7°C° 0 mm 1 mps 599 mmHg 65%
    09:00 +9°C° 0 mm 1 mps 600 mmHg 57%
    10:00 +10°C° 0 mm 1 mps 600 mmHg 55%
    11:00 +10°C° 0 mm 2 mps 600 mmHg 53%
    12:00 +12°C° 0 mm 2 mps 600 mmHg 51%
    13:00 +10°C° 0 mm 2 mps 600 mmHg 53%
    14:00 +10°C° 0 mm 2 mps 599 mmHg 55%
    15:00 +10°C° 0 mm 2 mps 599 mmHg 56%
    16:00 +10°C° 0 mm 1 mps 598 mmHg 65%
    17:00 +8°C° 0 mm 1 mps 597 mmHg 74%
    18:00 +6°C° 0 mm 1 mps 597 mmHg 83%
    19:00 +6°C° 0 mm 1 mps 597 mmHg 81%
    20:00 +6°C° 0 mm 1 mps 596 mmHg 80%
    21:00 +5°C° 0 mm 1 mps 596 mmHg 78%
    22:00 +5°C° 0 mm 1 mps 596 mmHg 74%
    23:00 +5°C° 0 mm 1 mps 596 mmHg 71%

    Day after tomorrow, 18 October, Thursday

    Time Temperature Precipitation Wind Pressure Humidity
    00:00 +5°C° 0 mm 1 mps 596 mmHg 67%
    01:00 +5°C° 0 mm 1 mps 596 mmHg 63%
    02:00 +5°C° 0 mm 1 mps 595 mmHg 60%
    03:00 +5°C° 0 mm 1 mps 595 mmHg 56%
    04:00 +5°C° 0 mm 1 mps 595 mmHg 51%
    05:00 +5°C° 0 mm 1 mps 595 mmHg 46%
    06:00 +3°C° 0 mm 2 mps 595 mmHg 41%
    07:00 +7°C° 0 mm 1 mps 596 mmHg 36%
    08:00 +9°C° 0 mm 1 mps 597 mmHg 32%
    09:00 +11°C° 0 mm 1 mps 598 mmHg 28%
    10:00 +12°C° 0 mm 1 mps 599 mmHg 27%
    11:00 +13°C° 0 mm 2 mps 599 mmHg 27%
    12:00 +14°C° 0 mm 2 mps 599 mmHg 27%
    13:00 +14°C° 0 mm 2 mps 599 mmHg 29%
    14:00 +14°C° 0 mm 2 mps 599 mmHg 32%
    15:00 +13°C° 0 mm 2 mps 598 mmHg 35%
    16:00 +11°C° 0 mm 1 mps 598 mmHg 45%
    17:00 +9°C° 0 mm 1 mps 597 mmHg 55%
    18:00 +7°C° 0 mm 1 mps 596 mmHg 65%
    19:00 +6°C° 0 mm 1 mps 596 mmHg 63%
    20:00 +6°C° 0 mm 1 mps 596 mmHg 61%
    21:00 +6°C° 0 mm 1 mps 596 mmHg 59%
    22:00 +5°C° 0 mm 1 mps 596 mmHg 59%
    23:00 +5°C° 0 mm 1 mps 596 mmHg 60%

    19 October, Friday

    Time Temperature Precipitation Wind Pressure Humidity
    00:00 +5°C° 0 mm 1 mps 596 mmHg 60%
    01:00 +5°C° 0 mm 1 mps 595 mmHg 61%
    02:00 +5°C° 0 mm 1 mps 595 mmHg 63%
    03:00 +4°C° 0 mm 1 mps 595 mmHg 64%
    04:00 +4°C° 0 mm 1 mps 595 mmHg 64%
    05:00 +4°C° 0 mm 1 mps 595 mmHg 63%
    06:00 +4°C° 0 mm 1 mps 595 mmHg 63%
    07:00 +6°C° 0 mm 1 mps 596 mmHg 56%
    08:00 +8°C° 0 mm 1 mps 597 mmHg 49%
    09:00 +11°C° 0 mm 1 mps 598 mmHg 41%
    10:00 +12°C° 0 mm 1 mps 599 mmHg 39%
    11:00 +13°C° 0 mm 1 mps 599 mmHg 37%
    12:00 +14°C° 0 mm 2 mps 599 mmHg 35%
    13:00 +13°C° 0 mm 2 mps 599 mmHg 38%
    14:00 +13°C° 0 mm 2 mps 598 mmHg 40%
    15:00 +13°C° 0 mm 2 mps 598 mmHg 42%
    16:00 +11°C° 0 mm 1 mps 597 mmHg 51%
    17:00 +9°C° 0 mm 1 mps 596 mmHg 61%
    18:00 +7°C° 0 mm 1 mps 596 mmHg 71%
    19:00 +7°C° 0 mm 1 mps 595 mmHg 72%
    20:00 +6°C° 0 mm 1 mps 595 mmHg 74%
    21:00 +5°C° 0 mm 2 mps 595 mmHg 75%
    22:00 +5°C° 0 mm 2 mps 595 mmHg 77%
    23:00 +5°C° 0 mm 2 mps 595 mmHg 78%

    20 October, Saturday

    Time Temperature Precipitation Wind Pressure Humidity
    00:00 +5°C° 0 mm 2 mps 595 mmHg 80%
    01:00 +4°C° 0 mm 2 mps 595 mmHg 78%
    02:00 +4°C° 0 mm 2 mps 594 mmHg 76%
    03:00 +4°C° 0 mm 2 mps 594 mmHg 75%
    04:00 +4°C° 0 mm 2 mps 594 mmHg 71%
    05:00 +4°C° 0 mm 2 mps 594 mmHg 67%
    06:00 +4°C° 0 mm 2 mps 594 mmHg 64%
    07:00 +6°C° 0 mm 2 mps 595 mmHg 57%
    08:00 +8°C° 0 mm 2 mps 596 mmHg 51%
    09:00 +10°C° 0 mm 2 mps 597 mmHg 44%
    10:00 +12°C° 0 mm 2 mps 597 mmHg 42%
    11:00 +14°C° 0 mm 2 mps 597 mmHg 39%
    12:00 +15°C° 0 mm 2 mps 597 mmHg 37%
    13:00 +14°C° 0 mm 2 mps 597 mmHg 38%
    14:00 +14°C° 0 mm 2 mps 596 mmHg 39%
    15:00 +14°C° 0 mm 1 mps 596 mmHg 40%
    16:00 +12°C° 0 mm 1 mps 595 mmHg 47%
    17:00 +10°C° 0 mm 1 mps 595 mmHg 54%
    18:00 +8°C° 0 mm 1 mps 594 mmHg 60%
    19:00 +8°C° 0 mm 1 mps 594 mmHg 61%
    20:00 +8°C° 0 mm 1 mps 594 mmHg 61%
    21:00 +8°C° 0 mm 1 mps 594 mmHg 61%
    22:00 +8°C° 0 mm 1 mps 593 mmHg 61%
    23:00 +7°C° 0 mm 1 mps 593 mmHg 61%

    21 October, Sunday

    Time Temperature Precipitation Wind Pressure Humidity
    00:00 +6°C° 0 mm 2 mps 593 mmHg 61%
    01:00 +6°C° 0 mm 2 mps 593 mmHg 61%
    02:00 +6°C° 0 mm 2 mps 593 mmHg 61%
    03:00 +6°C° 0 mm 2 mps 592 mmHg 60%
    04:00 +6°C° 0 mm 2 mps 592 mmHg 61%
    05:00 +6°C° 0 mm 2 mps 592 mmHg 61%
    06:00 +6°C° 0 mm 2 mps 592 mmHg 62%
    07:00 +7°C° 0 mm 2 mps 593 mmHg 57%
    08:00 +9°C° 0 mm 2 mps 594 mmHg 53%
    09:00 +12°C° 0 mm 2 mps 595 mmHg 49%
    10:00 +13°C° 0 mm 2 mps 595 mmHg 47%
    11:00 +14°C° 0 mm 2 mps 595 mmHg 45%
    12:00 +14°C° 0 mm 2 mps 595 mmHg 43%
    13:00 +14°C° 0.1 mm 2 mps 595 mmHg 44%
    14:00 +14°C° 0.1 mm 2 mps 595 mmHg 45%
    15:00 +14°C° 0.1 mm 2 mps 594 mmHg 46%
    16:00 +12°C° 0 mm 2 mps 594 mmHg 52%
    17:00 +11°C° 0 mm 1 mps 593 mmHg 58%
    18:00 +9°C° 0 mm 1 mps 593 mmHg 63%
    19:00 +9°C° 0.2 mm 1 mps 593 mmHg 64%
    20:00 +9°C° 0.2 mm 1 mps 593 mmHg 65%
    21:00 +7°C° 0.2 mm 2 mps 593 mmHg 66%
    22:00 +7°C° 0.2 mm 2 mps 593 mmHg 68%
    23:00 +7°C° 0.2 mm 2 mps 593 mmHg 71%
    Show more